This demonstration page uses our WeatherBlox Daily Observations layout. Learn more.

Left ArrowRight Arrow

38.83388, -104.82136

Hourly Observations for May 13, 2022

Temp ( °F °C ) Dew Point ( °F °C ) Humidity (%) Winds ( mph kmh ) Pressure ( in mb ) Visibility ( mi km ) Precip ( " mm )
1:58 am 01:58 Clear 54 12.3 3 -16.3 12 12 NNW 5 7 29.74 1007 10 16 0.00 0.00
2:58 am 02:58 Clear 54 12.1 1 -17.5 11 11 SSE 12 19 29.76 1008 10 16 0.00 0.00
4:58 am 04:58 undefined N/A N/A N/A S 14 22 N/A N/A 0.00 0.00
5:58 am 05:58 Sunny 47 8.4 13 -10.5 25 25 S 17 28 29.64 1004 10 16 0.00 0.00
6:58 am 06:58 Sunny 49 9.7 16 -8.9 26 26 S 12 19 29.68 1005 10 16 0.00 0.00
7:58 am 07:58 Sunny 51 10.8 21 -6.1 30 30 SSE 17 28 29.71 1006 10 16 0.00 0.00
8:58 am 08:58 Sunny 52 11.3 23 -5.2 31 31 SSE 25 41 29.92 1013 10 16 0.00 0.00
9:58 am 09:58 Sunny 54 12.2 22 -5.3 29 29 SE 21 33 29.72 1007 10 16 0.00 0.00
10:51 am 10:51 Sunny 55 13 21 -6 26 26 S 18 30 29.89 1012 10 16 0.00 0.00
10:58 am 10:58 Sunny 56 13.3 22 -5.8 26 26 SSE 22 35 29.74 1007 10 16 0.00 0.00
11:00 am 11:00 Sunny 55 13 21 -6 26 26 SE 14 22 29.73 1007 10 16 0.00 0.00
11:58 am 11:58 Sunny 59 15 21 -6 23 23 SSE 18 30 29.84 1011 10 16 0.00 0.00
12:58 pm 12:58 Sunny 63 17.2 19 -7.3 18 18 SE 21 33 29.78 1008 10 16 0.00 0.00
1:58 pm 13:58 Sunny 66 18.8 15 -9.3 14 14 SSE 20 31 29.69 1005 10 16 0.00 0.00
2:58 pm 14:58 Sunny 68 20.2 12 -11.2 11 11 SSE 24 39 29.69 1005 10 16 0.00 0.00
3:41 pm 15:41 Partly Cloudy 72 22 9 -13 8 8 ESE 14 22 29.67 1005 10 16 0.00 0.00
3:55 pm 15:55 Mostly Cloudy 70 21 10 -12 10 10 SSE 16 26 29.69 1005 10 16 0.00 0.00
3:58 pm 15:58 Mostly Cloudy 70 21.3 11 -11.6 10 10 SSE 22 35 29.70 1006 10 16 0.00 0.00
4:00 pm 16:00 Mostly Cloudy 72 22 9 -13 8 8 S 17 28 29.68 1005 10 16 0.00 0.00
4:02 pm 16:02 Mostly Cloudy 72 22 9 -13 8 8 SSE 15 24 29.68 1005 10 16 0.00 0.00
4:57 pm 16:57 Sunny 72 22 9 -13 8 8 ENE 12 19 29.75 1007 10 16 0.00 0.00
4:58 pm 16:58 Mostly Sunny 71 21.7 9 -12.6 9 9 ENE 9 15 29.75 1007 10 16 0.00 0.00
5:03 pm 17:03 Partly Cloudy 70 21 7 -14 8 8 N 22 35 29.72 1006 10 16 0.00 0.00
5:58 pm 17:58 Mostly Cloudy 69 20.5 -1 -18.4 6 6 Calm 29.72 1006 10 16 0.00 0.00
6:58 pm 18:58 Mostly Cloudy 68 20.1 -5 -20.8 5 5 WNW 7 11 29.70 1006 10 16 0.00 0.00
7:58 pm 19:58 Mostly Cloudy 66 18.7 -3 -19.7 6 6 NW 8 13 29.70 1006 10 16 0.00 0.00
8:58 pm 20:58 Cloudy 64 17.5 -2 -18.8 7 7 W 5 7 29.70 1006 10 16 0.00 0.00
9:58 pm 21:58 Cloudy 62 16.5 0 -17.9 8 8 NW 10 17 29.72 1006 10 16 0.00 0.00
10:58 pm 22:58 Cloudy 62 16.7 0 -17.8 8 8 NW 9 15 29.74 1007 10 16 0.00 0.00
11:58 pm 23:58 Cloudy 59 15.1 0 -17.6 9 9 Calm 29.70 1006 10 16 0.00 0.00

Powered by AerisWeather